QPF
0.00 0.00 0.00 0.00 0.00 0.00 0.00 0.00 0.00 0.00 0.00 0.00 0.00 0.00 0.00 0.00 0.00 0.00 0.00 0.00 0.00 0.00 0.00 0.00 0.00 0.00 0.01 0.01 0.01 0.01 0.02 0.02 0.01 0.00 0.00 0.00 0.00 0.00 0.00 0.00 0.01 0.01 0.02
0.00 0.00 0.00 0.00 0.00 0.00 0.00 0.00 0.00 0.00 0.00 0.00 0.00 0.00 0.00 0.00 0.00 0.00 0.00 0.00 0.00 0.00 0.00 0.00 0.00 0.00 0.01 0.01 0.01 0.01 0.02 0.02 0.02 0.01 0.00 0.00 0.00 0.00 0.00 0.00 0.01 0.01 0.02
0.00 0.00 0.00 0.00 0.00 0.00 0.00 0.00 0.00 0.00 0.00 0.00 0.00 0.00 0.00 0.00 0.00 0.00 0.00 0.00 0.00 0.00 0.00 0.00 0.00 0.00 0.00 0.01 0.01 0.01 0.02 0.02 0.02 0.02 0.01 0.00 0.00 0.00 0.00 0.01 0.01 0.02 0.01
0.00 0.00 0.00 0.00 0.00 0.00 0.00 0.00 0.00 0.00 0.00 0.00 0.00 0.00 0.00 0.00 0.00 0.00 0.00 0.00 0.00 0.00 0.00 0.00 0.00 0.00 0.00 0.00 0.01 0.01 0.01 0.02 0.03 0.03 0.02 0.01 0.01 0.01 0.01 0.01 0.02 0.02 0.02
0.00 0.00 0.00 0.00 0.00 0.00 0.00 0.00 0.00 0.00 0.00 0.00 0.00 0.00 0.00 0.00 0.00 0.00 0.00 0.00 0.00 0.00 0.00 0.00 0.00 0.00 0.00 0.01 0.01 0.01 0.01 0.02 0.02 0.03 0.03 0.02 0.02 0.01 0.01 0.01 0.02 0.04 0.05
0.00 0.00 0.00 0.00 0.00 0.00 0.00 0.00 0.00 0.00 0.00 0.00 0.00 0.00 0.00 0.00 0.00 0.00 0.00 0.00 0.00 0.00 0.00 0.00 0.00 0.00 0.00 0.01 0.01 0.01 0.01 0.01 0.02 0.03 0.03 0.03 0.02 0.02 0.02 0.03 0.05 0.07 0.08
0.00 0.00 0.00 0.00 0.00 0.00 0.00 0.00 0.00 0.00 0.00 0.00 0.00 0.00 0.00 0.00 0.00 0.00 0.00 0.00 0.00 0.00 0.00 0.00 0.00 0.00 0.00 0.00 0.00 0.01 0.01 0.02 0.03 0.03 0.03 0.03 0.03 0.03 0.04 0.06 0.07 0.09 0.08
0.00 0.00 0.00 0.00 0.00 0.00 0.00 0.00 0.00 0.00 0.00 0.00 0.00 0.00 0.00 0.00 0.00 0.00 0.00 0.00 0.00 0.00 0.00 0.00 0.00 0.00 0.00 0.00 0.00 0.00 0.00 0.00 0.01 0.02 0.03 0.03 0.04 0.05 0.07 0.08 0.11 0.14 0.14
0.00 0.00 0.00 0.00 0.00 0.00 0.00 0.00 0.00 0.00 0.00 0.00 0.00 0.00 0.00 0.00 0.00 0.00 0.00 0.00 0.00 0.00 0.00 0.00 0.00 0.00 0.00 0.01 0.01 0.00 0.00 0.00 0.01 0.02 0.03 0.05 0.07 0.08 0.09 0.11 0.13 0.15 0.14
0.00 0.00 0.00 0.00 0.00 0.00 0.00 0.00 0.00 0.00 0.00 0.00 0.00 0.00 0.00 0.00 0.00 0.00 0.00 0.00 0.00 0.00 0.00 0.00 0.00 0.00 0.01 0.01 0.01 0.01 0.02 0.01 0.02 0.03 0.04 0.06 0.08 0.09 0.10 0.11 0.12 0.14 0.15
0.00 0.00 0.00 0.00 0.00 0.00 0.00 0.00 0.00 0.00 0.00 0.00 0.00 0.00 0.00 0.00 0.00 0.00 0.00 0.00 0.00 0.00 0.00 0.00 0.00 0.01 0.01 0.01 0.02 0.02 0.03 0.03 0.04 0.05 0.06 0.06 0.08 0.10 0.12 0.14 0.14 0.14 0.14
0.00 0.00 0.00 0.00 0.00 0.00 0.00 0.00 0.00 0.00 0.00 0.00 0.00 0.00 0.00 0.00 0.00 0.00 0.00 0.00 0.00 0.01 0.01 0.01 0.01 0.01 0.01 0.02 0.02 0.03 0.03 0.04 0.06 0.06 0.07 0.08 0.09 0.11 0.13 0.14 0.15 0.16 0.14
0.00 0.00 0.00 0.00 0.00 0.00 0.00 0.00 0.00 0.00 0.00 0.00 0.00 0.00 0.00 0.00 0.00 0.00 0.00 0.00 0.01 0.01 0.01 0.01 0.01 0.02 0.02 0.02 0.03 0.03 0.04 0.05 0.06 0.06 0.06 0.07 0.08 0.10 0.11 0.12 0.13 0.12 0.12
0.00 0.00 0.00 0.00 0.00 0.00 0.00 0.00 0.00 0.00 0.00 0.00 0.00 0.00 0.00 0.00 0.00 0.00 0.01 0.01 0.01 0.01 0.01 0.01 0.01 0.02 0.03 0.03 0.03 0.03 0.04 0.05 0.05 0.06 0.06 0.07 0.08 0.08 0.09 0.09 0.09 0.10 0.09
0.00 0.00 0.00 0.00 0.00 0.00 0.00 0.00 0.00 0.00 0.00 0.01 0.01 0.01 0.01 0.01 0.01 0.01 0.01 0.02 0.01 0.02 0.02 0.02 0.02 0.02 0.02 0.03 0.03 0.04 0.04 0.05 0.05 0.06 0.06 0.06 0.07 0.07 0.08 0.08 0.08 0.08 0.07
0.00 0.00 0.00 0.00 0.00 0.00 0.00 0.00 0.00 0.00 0.00 0.01 0.01 0.01 0.01 0.01 0.01 0.01 0.02 0.02 0.02 0.02 0.02 0.03 0.02 0.03 0.03 0.03 0.04 0.04 0.04 0.05 0.05 0.05 0.06 0.06 0.06 0.06 0.06 0.07 0.07 0.07 0.06
0.00 0.00 0.00 0.00 0.00 0.00 0.00 0.00 0.00 0.00 0.01 0.01 0.01 0.01 0.02 0.02 0.02 0.02 0.02 0.02 0.02 0.02 0.03 0.03 0.03 0.03 0.03 0.03 0.04 0.04 0.04 0.04 0.05 0.05 0.05 0.05 0.05 0.05 0.05 0.05 0.05 0.05 0.05
0.00 0.00 0.00 0.00 0.00 0.00 0.01 0.01 0.01 0.01 0.01 0.01 0.01 0.02 0.02 0.02 0.03 0.03 0.03 0.03 0.02 0.02 0.02 0.03 0.03 0.03 0.03 0.03 0.03 0.03 0.04 0.04 0.04 0.04 0.04 0.04 0.04 0.04 0.04 0.04 0.04 0.03 0.03
0.00 0.00 0.00 0.00 0.00 0.01 0.01 0.01 0.01 0.01 0.02 0.02 0.02 0.02 0.02 0.03 0.03 0.03 0.03 0.03 0.03 0.02 0.02 0.03 0.03 0.03 0.03 0.03 0.03 0.03 0.03 0.03 0.03 0.03 0.03 0.03 0.03 0.03 0.03 0.03 0.03 0.02 0.02
0.00 0.00 0.00 0.00 0.01 0.01 0.01 0.01 0.02 0.02 0.02 0.02 0.02 0.02 0.03 0.03 0.03 0.03 0.03 0.03 0.03 0.03 0.03 0.03 0.03 0.03 0.02 0.02 0.02 0.02 0.02 0.02 0.02 0.02 0.02 0.02 0.02 0.02 0.02 0.02 0.02 0.02 0.01
0.00 0.00 0.00 0.00 0.01 0.01 0.01 0.01 0.02 0.02 0.02 0.03 0.03 0.03 0.04 0.03 0.03 0.03 0.03 0.03 0.03 0.03 0.03 0.03 0.02 0.02 0.02 0.02 0.02 0.02 0.02 0.02 0.02 0.02 0.02 0.02 0.02 0.01 0.01 0.01 0.01 0.01 0.01
0.00 0.00 0.00 0.00 0.01 0.01 0.01 0.02 0.02 0.03 0.03 0.03 0.03 0.03 0.04 0.03 0.03 0.03 0.03 0.03 0.03 0.03 0.03 0.02 0.02 0.02 0.02 0.02 0.01 0.01 0.01 0.01 0.01 0.01 0.01 0.01 0.01 0.01 0.01 0.01 0.01 0.01 0.01
0.00 0.00 0.00 0.01 0.01 0.01 0.02 0.02 0.02 0.03 0.03 0.03 0.03 0.03 0.03 0.03 0.03 0.03 0.03 0.03 0.03 0.02 0.02 0.02 0.02 0.01 0.01 0.01 0.01 0.01 0.01 0.01 0.01 0.01 0.01 0.01 0.01 0.01 0.01 0.01 0.01 0.01 0.01
0.00 0.00 0.01 0.01 0.01 0.01 0.02 0.02 0.02 0.03 0.03 0.03 0.03 0.03 0.03 0.03 0.03 0.03 0.03 0.02 0.02 0.02 0.02 0.01 0.01 0.01 0.01 0.01 0.01 0.01 0.01 0.01 0.01 0.01 0.01 0.01 0.00 0.00 0.00 0.00 0.00 0.00 0.00
0.00 0.01 0.01 0.01 0.01 0.01 0.02 0.02 0.02 0.03 0.03 0.03 0.03 0.03 0.03 0.03 0.02 0.02 0.02 0.02 0.01 0.01 0.01 0.01 0.01 0.00 0.00 0.00 0.00 0.00 0.00 0.00 0.00 0.00 0.00 0.00 0.00 0.00 0.00 0.00 0.00 0.00 0.00
0.01 0.01 0.01 0.01 0.01 0.02 0.02 0.02 0.02 0.02 0.02 0.03 0.03 0.02 0.02 0.02 0.02 0.01 0.01 0.01 0.01 0.01 0.01 0.00 0.00 0.00 0.00 0.00 0.00 0.00 0.00 0.00 0.00 0.00 0.00 0.00 0.00 0.00 0.00 0.00 0.00 0.00 0.00
MSLP
1021.36 1021.55 1021.74 1021.91 1022.04 1022.13 1022.18 1022.20 1022.20 1022.17 1022.12 1022.04 1021.91 1021.75 1021.54 1021.29 1021.02 1020.76 1020.51 1020.29 1020.13 1020.00 1019.89 1019.78 1019.64 1019.44 1019.15 1018.76 1018.29 1017.74 1017.15 1016.57 1016.02 1015.55 1015.18 1014.93 1014.79 1014.75 1014.79 1014.87 1014.97 1015.06 1015.12
1022.14 1022.34 1022.52 1022.67 1022.78 1022.84 1022.85 1022.83 1022.77 1022.70 1022.59 1022.46 1022.29 1022.09 1021.84 1021.55 1021.24 1020.91 1020.59 1020.29 1020.03 1019.80 1019.58 1019.37 1019.15 1018.87 1018.54 1018.13 1017.65 1017.11 1016.53 1015.96 1015.41 1014.92 1014.51 1014.21 1014.01 1013.90 1013.87 1013.90 1013.96 1014.01 1014.04
1022.85 1023.05 1023.24 1023.38 1023.47 1023.50 1023.48 1023.41 1023.31 1023.17 1023.02 1022.84 1022.63 1022.38 1022.10 1021.78 1021.43 1021.06 1020.69 1020.32 1019.97 1019.65 1019.34 1019.04 1018.74 1018.41 1018.04 1017.62 1017.15 1016.63 1016.08 1015.52 1014.97 1014.47 1014.02 1013.66 1013.39 1013.20 1013.08 1013.03 1013.01 1013.01 1013.00
1023.45 1023.67 1023.86 1023.99 1024.07 1024.07 1024.02 1023.91 1023.76 1023.57 1023.37 1023.14 1022.89 1022.61 1022.30 1021.96 1021.59 1021.19 1020.77 1020.36 1019.94 1019.55 1019.17 1018.80 1018.43 1018.06 1017.66 1017.24 1016.78 1016.29 1015.77 1015.23 1014.69 1014.17 1013.69 1013.26 1012.91 1012.62 1012.41 1012.26 1012.17 1012.10 1012.04
1023.96 1024.19 1024.38 1024.51 1024.57 1024.55 1024.46 1024.31 1024.12 1023.89 1023.64 1023.37 1023.08 1022.78 1022.45 1022.09 1021.70 1021.28 1020.84 1020.39 1019.93 1019.48 1019.04 1018.61 1018.20 1017.80 1017.39 1016.97 1016.53 1016.06 1015.56 1015.04 1014.50 1013.96 1013.44 1012.96 1012.53 1012.16 1011.86 1011.62 1011.45 1011.32 1011.22
1024.39 1024.63 1024.81 1024.93 1024.97 1024.93 1024.81 1024.63 1024.39 1024.12 1023.83 1023.52 1023.20 1022.87 1022.53 1022.16 1021.76 1021.33 1020.88 1020.40 1019.91 1019.42 1018.94 1018.48 1018.03 1017.60 1017.17 1016.76 1016.32 1015.87 1015.39 1014.88 1014.34 1013.79 1013.24 1012.71 1012.22 1011.78 1011.41 1011.11 1010.88 1010.70 1010.58
1024.77 1025.00 1025.18 1025.29 1025.30 1025.24 1025.08 1024.86 1024.59 1024.27 1023.94 1023.60 1023.25 1022.90 1022.54 1022.16 1021.76 1021.33 1020.86 1020.37 1019.86 1019.35 1018.83 1018.33 1017.86 1017.40 1016.97 1016.54 1016.11 1015.67 1015.20 1014.69 1014.16 1013.61 1013.04 1012.48 1011.96 1011.48 1011.07 1010.73 1010.48 1010.30 1010.18
1025.13 1025.35 1025.51 1025.59 1025.57 1025.47 1025.28 1025.01 1024.69 1024.34 1023.97 1023.59 1023.22 1022.84 1022.47 1022.08 1021.67 1021.24 1020.77 1020.27 1019.75 1019.21 1018.68 1018.15 1017.65 1017.17 1016.72 1016.29 1015.85 1015.41 1014.95 1014.46 1013.94 1013.39 1012.83 1012.27 1011.75 1011.27 1010.86 1010.53 1010.29 1010.12 1010.03
1025.50 1025.70 1025.82 1025.86 1025.80 1025.64 1025.40 1025.09 1024.72 1024.32 1023.90 1023.49 1023.08 1022.69 1022.29 1021.89 1021.48 1021.04 1020.57 1020.07 1019.54 1019.00 1018.45 1017.91 1017.39 1016.89 1016.43 1015.98 1015.55 1015.11 1014.66 1014.19 1013.69 1013.17 1012.64 1012.11 1011.62 1011.17 1010.80 1010.51 1010.30 1010.18 1010.14
1025.89 1026.05 1026.13 1026.11 1025.98 1025.76 1025.45 1025.08 1024.65 1024.19 1023.73 1023.27 1022.83 1022.41 1022.00 1021.59 1021.17 1020.74 1020.27 1019.77 1019.25 1018.71 1018.16 1017.61 1017.09 1016.59 1016.12 1015.67 1015.24 1014.81 1014.38 1013.94 1013.48 1013.00 1012.52 1012.05 1011.61 1011.23 1010.91 1010.68 1010.53 1010.47 1010.48
1026.33 1026.43 1026.43 1026.33 1026.13 1025.83 1025.44 1024.98 1024.48 1023.96 1023.44 1022.93 1022.45 1022.01 1021.58 1021.16 1020.75 1020.32 1019.87 1019.40 1018.89 1018.37 1017.84 1017.32 1016.80 1016.31 1015.85 1015.42 1015.00 1014.60 1014.20 1013.79 1013.38 1012.96 1012.54 1012.14 1011.78 1011.46 1011.22 1011.04 1010.95 1010.94 1011.00
1026.78 1026.81 1026.73 1026.53 1026.23 1025.83 1025.35 1024.81 1024.23 1023.63 1023.05 1022.49 1021.98 1021.50 1021.06 1020.65 1020.25 1019.84 1019.43 1018.99 1018.53 1018.05 1017.57 1017.08 1016.60 1016.14 1015.71 1015.31 1014.92 1014.55 1014.19 1013.83 1013.47 1013.12 1012.77 1012.44 1012.14 1011.90 1011.71 1011.59 1011.54 1011.57 1011.65
1027.24 1027.17 1026.99 1026.70 1026.29 1025.79 1025.21 1024.57 1023.90 1023.23 1022.59 1021.98 1021.43 1020.93 1020.49 1020.09 1019.72 1019.35 1018.99 1018.62 1018.23 1017.82 1017.40 1016.98 1016.57 1016.17 1015.78 1015.42 1015.08 1014.75 1014.44 1014.13 1013.82 1013.52 1013.23 1012.96 1012.73 1012.53 1012.39 1012.30 1012.28 1012.31 1012.40
1027.67 1027.51 1027.22 1026.82 1026.30 1025.69 1025.01 1024.28 1023.53 1022.79 1022.09 1021.44 1020.86 1020.36 1019.93 1019.56 1019.23 1018.93 1018.64 1018.35 1018.05 1017.74 1017.42 1017.09 1016.75 1016.43 1016.11 1015.81 1015.52 1015.24 1014.97 1014.70 1014.44 1014.18 1013.94 1013.71 1013.51 1013.34 1013.22 1013.14 1013.12 1013.14 1013.21
1028.04 1027.78 1027.39 1026.88 1026.26 1025.56 1024.78 1023.97 1023.14 1022.34 1021.60 1020.92 1020.33 1019.84 1019.44 1019.11 1018.85 1018.63 1018.43 1018.25 1018.06 1017.86 1017.65 1017.43 1017.19 1016.95 1016.71 1016.47 1016.23 1016.00 1015.77 1015.53 1015.30 1015.07 1014.85 1014.65 1014.46 1014.30 1014.18 1014.09 1014.05 1014.04 1014.08
1028.30 1027.95 1027.47 1026.88 1026.17 1025.38 1024.53 1023.65 1022.77 1021.93 1021.16 1020.47 1019.89 1019.43 1019.07 1018.80 1018.62 1018.50 1018.41 1018.34 1018.27 1018.20 1018.10 1017.99 1017.85 1017.70 1017.53 1017.35 1017.17 1016.97 1016.77 1016.56 1016.35 1016.13 1015.92 1015.72 1015.53 1015.36 1015.22 1015.11 1015.03 1014.99 1015.00
1028.44 1028.01 1027.46 1026.79 1026.02 1025.17 1024.27 1023.35 1022.44 1021.58 1020.80 1020.13 1019.57 1019.15 1018.85 1018.66 1018.57 1018.54 1018.57 1018.61 1018.66 1018.70 1018.72 1018.71 1018.66 1018.59 1018.49 1018.37 1018.22 1018.06 1017.88 1017.69 1017.48 1017.27 1017.06 1016.85 1016.65 1016.47 1016.30 1016.17 1016.06 1015.99 1015.95
1028.42 1027.94 1027.34 1026.62 1025.81 1024.93 1024.00 1023.06 1022.14 1021.29 1020.53 1019.89 1019.39 1019.02 1018.79 1018.69 1018.68 1018.75 1018.88 1019.03 1019.18 1019.32 1019.43 1019.50 1019.54 1019.53 1019.49 1019.41 1019.29 1019.16 1018.99 1018.81 1018.61 1018.40 1018.19 1017.97 1017.76 1017.57 1017.38 1017.23 1017.10 1017.00 1016.94
1028.25 1027.74 1027.11 1026.37 1025.54 1024.65 1023.72 1022.79 1021.90 1021.08 1020.36 1019.77 1019.33 1019.04 1018.88 1018.85 1018.93 1019.09 1019.30 1019.53 1019.76 1019.98 1020.16 1020.29 1020.38 1020.42 1020.41 1020.36 1020.28 1020.16 1020.01 1019.84 1019.65 1019.45 1019.24 1019.02 1018.81 1018.61 1018.43 1018.26 1018.12 1018.01 1017.93
1027.96 1027.42 1026.79 1026.05 1025.23 1024.35 1023.45 1022.55 1021.71 1020.94 1020.29 1019.77 1019.40 1019.17 1019.09 1019.14 1019.29 1019.51 1019.78 1020.07 1020.35 1020.61 1020.82 1020.99 1021.11 1021.17 1021.19 1021.16 1021.09 1020.99 1020.86 1020.70 1020.53 1020.35 1020.16 1019.96 1019.76 1019.57 1019.40 1019.24 1019.09 1018.97 1018.88
1027.56 1027.03 1026.40 1025.68 1024.88 1024.04 1023.19 1022.35 1021.57 1020.88 1020.30 1019.86 1019.57 1019.43 1019.42 1019.52 1019.72 1019.99 1020.29 1020.60 1020.90 1021.17 1021.39 1021.56 1021.68 1021.75 1021.77 1021.75 1021.69 1021.61 1021.50 1021.38 1021.24 1021.08 1020.92 1020.75 1020.58 1020.42 1020.26 1020.11 1019.97 1019.85 1019.75
1027.11 1026.59 1025.98 1025.29 1024.54 1023.76 1022.97 1022.21 1021.51 1020.91 1020.42 1020.06 1019.85 1019.78 1019.83 1019.98 1020.21 1020.49 1020.80 1021.10 1021.38 1021.63 1021.83 1021.98 1022.08 1022.13 1022.14 1022.13 1022.08 1022.02 1021.93 1021.84 1021.74 1021.62 1021.50 1021.38 1021.25 1021.11 1020.98 1020.84 1020.72 1020.60 1020.49
1026.65 1026.16 1025.58 1024.94 1024.25 1023.53 1022.82 1022.15 1021.54 1021.03 1020.64 1020.37 1020.23 1020.21 1020.31 1020.48 1020.72 1020.99 1021.27 1021.54 1021.78 1021.98 1022.13 1022.24 1022.30 1022.32 1022.32 1022.29 1022.25 1022.21 1022.15 1022.09 1022.03 1021.97 1021.90 1021.81 1021.73 1021.63 1021.53 1021.41 1021.30 1021.18 1021.07
1026.24 1025.78 1025.25 1024.66 1024.03 1023.40 1022.77 1022.19 1021.68 1021.26 1020.96 1020.76 1020.69 1020.71 1020.83 1021.01 1021.23 1021.47 1021.71 1021.92 1022.09 1022.22 1022.31 1022.36 1022.37 1022.35 1022.32 1022.28 1022.24 1022.21 1022.18 1022.15 1022.13 1022.11 1022.09 1022.05 1022.01 1021.96 1021.89 1021.80 1021.70 1021.59 1021.48
1025.91 1025.49 1025.00 1024.47 1023.91 1023.35 1022.82 1022.33 1021.91 1021.58 1021.35 1021.22 1021.18 1021.24 1021.36 1021.52 1021.71 1021.90 1022.07 1022.21 1022.30 1022.36 1022.37 1022.35 1022.30 1022.24 1022.17 1022.11 1022.07 1022.03 1022.02 1022.02 1022.03 1022.05 1022.06 1022.08 1022.08 1022.06 1022.03 1021.98 1021.91 1021.82 1021.71
1025.66 1025.27 1024.84 1024.37 1023.88 1023.40 1022.94 1022.54 1022.20 1021.94 1021.77 1021.68 1021.67 1021.73 1021.83 1021.96 1022.09 1022.21 1022.31 1022.37 1022.38 1022.36 1022.30 1022.21 1022.10 1021.99 1021.89 1021.80 1021.73 1021.69 1021.68 1021.69 1021.72 1021.76 1021.81 1021.86 1021.90 1021.93 1021.94 1021.93 1021.90 1021.84 1021.76
Thickness
5610 5607 5605 5602 5599 5596 5594 5591 5588 5586 5583 5581 5578 5576 5573 5571 5568 5566 5564 5561 5559 5556 5553 5550 5548 5543 5539 5535 5529 5525 5520 5514 5522 5544 5536 5529 5521 5515 5511 5505 5499 5494 5491
5593 5591 5588 5585 5583 5580 5578 5574 5572 5570 5568 5565 5563 5561 5559 5556 5554 5552 5550 5547 5546 5544 5541 5538 5536 5532 5529 5524 5520 5516 5512 5507 5504 5517 5525 5516 5509 5503 5498 5493 5488 5483 5478
5576 5574 5571 5569 5566 5564 5561 5558 5556 5554 5552 5550 5548 5546 5543 5541 5539 5537 5535 5533 5532 5530 5528 5525 5523 5518 5516 5511 5507 5504 5500 5495 5490 5491 5502 5501 5495 5488 5481 5477 5472 5468 5464
5560 5558 5554 5551 5549 5547 5544 5542 5540 5539 5537 5535 5533 5530 5528 5526 5523 5521 5519 5518 5516 5515 5512 5509 5507 5503 5500 5495 5491 5487 5482 5479 5475 5473 5477 5480 5476 5469 5460 5458 5455 5451 5447
5543 5540 5536 5534 5532 5530 5528 5526 5524 5523 5521 5519 5517 5515 5513 5511 5508 5505 5504 5502 5501 5499 5496 5493 5490 5485 5481 5476 5472 5470 5464 5461 5458 5455 5456 5457 5457 5448 5443 5439 5436 5435 5432
5524 5520 5517 5515 5513 5511 5510 5508 5507 5506 5505 5503 5501 5499 5497 5494 5491 5488 5485 5485 5483 5481 5480 5477 5473 5468 5464 5458 5454 5449 5444 5440 5438 5434 5435 5435 5437 5432 5425 5419 5416 5412 5413
5504 5501 5498 5496 5495 5493 5492 5491 5490 5490 5488 5486 5485 5482 5481 5478 5474 5471 5467 5465 5465 5463 5460 5457 5454 5450 5444 5440 5437 5433 5428 5422 5415 5410 5411 5413 5412 5409 5401 5399 5396 5393 5393
5485 5482 5480 5478 5477 5475 5474 5474 5473 5472 5471 5469 5467 5465 5463 5460 5456 5452 5449 5447 5447 5444 5440 5436 5433 5430 5424 5418 5415 5414 5411 5406 5399 5392 5388 5388 5387 5384 5379 5376 5373 5370 5369
5467 5464 5461 5459 5458 5457 5456 5456 5455 5453 5452 5451 5449 5446 5444 5442 5437 5433 5429 5428 5427 5424 5420 5415 5410 5407 5404 5396 5392 5391 5391 5388 5381 5375 5371 5368 5366 5362 5358 5354 5353 5350 5351
5448 5445 5443 5441 5439 5438 5437 5436 5435 5433 5433 5432 5431 5428 5425 5423 5418 5413 5408 5406 5405 5404 5401 5395 5389 5384 5380 5375 5369 5367 5367 5367 5361 5357 5353 5350 5346 5343 5339 5335 5334 5332 5332
5428 5426 5424 5422 5420 5420 5419 5417 5415 5415 5414 5413 5412 5411 5407 5403 5399 5393 5387 5382 5379 5378 5377 5374 5368 5362 5357 5353 5348 5344 5343 5340 5338 5336 5333 5331 5328 5324 5321 5318 5315 5313 5313
5409 5407 5405 5403 5401 5401 5399 5398 5396 5394 5394 5394 5393 5392 5389 5383 5377 5372 5366 5360 5355 5352 5351 5349 5345 5340 5335 5332 5328 5324 5321 5318 5316 5315 5313 5310 5308 5305 5302 5299 5296 5293 5291
5389 5387 5386 5384 5383 5381 5379 5379 5377 5374 5372 5372 5370 5370 5369 5363 5357 5350 5345 5340 5334 5329 5327 5324 5320 5317 5314 5311 5307 5304 5300 5298 5296 5294 5292 5290 5286 5283 5281 5278 5276 5273 5270
5369 5368 5367 5366 5366 5363 5360 5358 5356 5353 5351 5349 5347 5346 5345 5342 5336 5329 5325 5320 5315 5309 5305 5302 5299 5295 5292 5289 5286 5283 5280 5277 5275 5274 5272 5269 5266 5264 5262 5260 5258 5256 5253
5350 5349 5347 5346 5344 5342 5341 5337 5334 5332 5327 5325 5323 5320 5319 5320 5315 5307 5302 5299 5295 5290 5285 5282 5279 5276 5273 5269 5266 5263 5260 5259 5257 5255 5253 5251 5250 5247 5244 5242 5240 5240 5237
5331 5329 5326 5325 5323 5321 5321 5321 5318 5312 5309 5304 5301 5297 5296 5293 5291 5287 5283 5279 5275 5271 5266 5263 5260 5256 5252 5249 5247 5245 5242 5240 5238 5237 5235 5234 5232 5231 5228 5226 5224 5223 5220
5307 5306 5304 5302 5301 5299 5297 5297 5299 5298 5291 5285 5281 5276 5273 5271 5269 5266 5263 5259 5255 5251 5248 5244 5240 5236 5233 5230 5228 5226 5224 5222 5220 5220 5219 5217 5215 5214 5213 5211 5209 5207 5203
5287 5285 5282 5281 5279 5277 5274 5272 5271 5272 5272 5270 5262 5256 5253 5250 5247 5245 5242 5240 5236 5230 5226 5223 5220 5217 5215 5213 5211 5209 5208 5206 5206 5204 5202 5201 5199 5199 5197 5195 5193 5190 5188
5269 5267 5264 5261 5259 5256 5254 5252 5250 5248 5248 5247 5243 5239 5233 5230 5227 5224 5221 5218 5215 5210 5206 5203 5201 5199 5198 5196 5195 5193 5192 5191 5189 5188 5187 5185 5183 5183 5181 5178 5177 5173 5171
5251 5248 5244 5242 5240 5237 5235 5233 5231 5229 5227 5225 5222 5219 5215 5212 5209 5205 5200 5197 5195 5192 5189 5186 5184 5182 5181 5180 5179 5179 5178 5176 5174 5173 5171 5169 5168 5167 5165 5163 5161 5159 5156
5234 5231 5227 5224 5222 5220 5217 5214 5211 5209 5207 5204 5202 5198 5196 5193 5190 5186 5183 5179 5177 5175 5173 5171 5169 5167 5166 5165 5164 5164 5163 5162 5159 5157 5156 5154 5152 5150 5149 5147 5145 5142 5138
5216 5214 5211 5207 5205 5202 5198 5195 5192 5190 5188 5185 5182 5180 5178 5174 5172 5169 5166 5164 5161 5159 5158 5156 5155 5153 5151 5150 5149 5149 5148 5147 5145 5143 5141 5139 5137 5135 5133 5131 5128 5125 5122
5200 5197 5194 5190 5187 5183 5180 5177 5174 5171 5169 5167 5164 5162 5160 5158 5156 5154 5152 5150 5148 5146 5145 5143 5142 5140 5139 5137 5135 5134 5133 5132 5129 5127 5126 5124 5122 5119 5117 5114 5110 5107 5104
5182 5179 5176 5173 5169 5166 5162 5159 5155 5153 5151 5149 5148 5146 5145 5144 5142 5140 5138 5136 5135 5134 5132 5130 5129 5128 5126 5124 5123 5121 5119 5117 5115 5113 5111 5108 5106 5103 5100 5096 5093 5090 5086
5165 5162 5158 5155 5151 5147 5144 5141 5138 5136 5135 5133 5132 5132 5131 5129 5128 5127 5125 5124 5122 5121 5120 5118 5117 5115 5114 5112 5110 5109 5107 5105 5102 5100 5097 5094 5091 5087 5083 5079 5076 5072 5067
5148 5145 5141 5137 5133 5130 5127 5125 5123 5121 5120 5119 5118 5118 5117 5116 5115 5114 5113 5112 5110 5109 5108 5107 5105 5104 5102 5100 5099 5097 5095 5093 5090 5087 5083 5080 5076 5073 5068 5064 5059 5055 5051